Tracking 29528 objects as of 12-Sep-2024
HD Live streaming from Space Station
objects crossing your sky now

COSMOS 839 DEB

Track COSMOS 839 DEB now!
10-day predictions


NORAD ID: 10622
Int'l Code: 1976-067AW
Perigee: 953.8 km
Apogee: 2,127.3 km
Inclination: 65.9 °
Period: 116.7 minutes
Semi major axis: 7911 km
RCS: 0.1409 m2 (medium)
Launch date: July 8, 1976
Source: Commonwealth of Independent States (former USSR) (CIS)
Launch site: PLESETSK MISSILE AND SPACE COMPLEX (PKMTR)

Note: This is SATELLITE DEBRIS
Your satellite tracking list
Your tracking list is empty




NASA's NSSDC Master Catalog

Two Line Element Set (TLE):
1 10622U 76067AW  24255.83629889 -.00000051  00000-0  10948-4 0  9991
2 10622  65.9056  42.8417 0741666  21.3727 126.3557 12.33707443169540
Source of the keplerian elements: AFSPC